GLOGT EGJB-EGPF

Flight info

Callsign GLOGT
Flight time 1h 3m
Altitude 43000
Route SKERY DCT BHD DCT BCN/N0495F450 DCT NOKIN/N0494F430 UP16 RIBEL
Aircraft GLF6/M-SBDE2E3FGHIJ4J5M1RWXY/LB1D1

Departure

Time 2026-04-25 12:43
Airport Guernsey Airport (EGJB)

Arrival

Time 2026-04-25 13:47
Airport Glasgow Airport (EGPF)
Time Latitude Longitude Altitude Speed Heading
2026-04-25 12:28 49.43354 -2.58935 334 ft 0 kts 225°
2026-04-25 12:36 49.43367 -2.59045 332 ft 20 kts 275°
2026-04-25 12:36 49.43365 -2.59249 329 ft 18 kts 262°
2026-04-25 12:36 49.43364 -2.59434 334 ft 16 kts 270°
2026-04-25 12:36 49.43360 -2.59602 334 ft 15 kts 266°
2026-04-25 12:37 49.43349 -2.59754 332 ft 14 kts 262°
2026-04-25 12:37 49.43343 -2.59893 333 ft 12 kts 268°
2026-04-25 12:37 49.43340 -2.60018 333 ft 11 kts 268°
2026-04-25 12:37 49.43336 -2.60139 332 ft 16 kts 266°
2026-04-25 12:38 49.43332 -2.60321 333 ft 17 kts 267°
2026-04-25 12:38 49.43326 -2.60490 331 ft 15 kts 268°
2026-04-25 12:38 49.43332 -2.60640 334 ft 14 kts 279°
2026-04-25 12:38 49.43347 -2.60778 334 ft 12 kts 279°
2026-04-25 12:39 49.43360 -2.60901 334 ft 11 kts 279°
2026-04-25 12:39 49.43361 -2.61011 334 ft 10 kts 268°
2026-04-25 12:39 49.43359 -2.61113 334 ft 13 kts 268°
2026-04-25 12:39 49.43358 -2.61224 334 ft 0 kts 277°
2026-04-25 12:40 49.43359 -2.61227 334 ft 4 kts 281°
2026-04-25 12:40 49.43458 -2.61357 339 ft 24 kts
2026-04-25 12:41 49.43483 -2.61240 340 ft 18 kts 122°
2026-04-25 12:41 49.43471 -2.61163 341 ft 0 kts 86°
2026-04-25 12:42 49.43472 -2.61134 339 ft 17 kts 86°
2026-04-25 12:42 49.43487 -2.60617 337 ft 80 kts 88°
2026-04-25 12:43 49.43517 -2.59466 346 ft 134 kts 88°
2026-04-25 12:43 49.43574 -2.57919 706 ft 157 kts 87°
2026-04-25 12:43 49.43608 -2.54294 2307 ft 176 kts 85°
2026-04-25 12:44 49.43695 -2.52285 2869 ft 202 kts 83°
2026-04-25 12:44 49.44313 -2.50314 3645 ft 210 kts 41°
2026-04-25 12:44 49.46998 -2.50009 5439 ft 213 kts 326°
2026-04-25 12:45 49.47990 -2.51806 6051 ft 231 kts 291°
2026-04-25 12:45 49.48325 -2.54185 7099 ft 233 kts 278°
2026-04-25 12:45 49.49557 -2.59203 8017 ft 294 kts 308°
2026-04-25 12:46 49.51248 -2.61384 8043 ft 338 kts 325°
2026-04-25 12:46 49.53240 -2.63250 8026 ft 331 kts 328°
2026-04-25 12:46 49.55261 -2.65024 8008 ft 333 kts 329°
2026-04-25 12:46 49.57211 -2.66693 8007 ft 316 kts 330°
2026-04-25 12:47 49.59109 -2.68307 7989 ft 299 kts 330°
2026-04-25 12:47 49.60865 -2.69790 7982 ft 285 kts 330°
2026-04-25 12:47 49.62640 -2.71289 8114 ft 290 kts 330°
2026-04-25 12:47 49.64422 -2.72795 8144 ft 294 kts 330°
2026-04-25 12:48 49.66199 -2.74295 8292 ft 283 kts 330°
2026-04-25 12:48 49.67895 -2.75728 9132 ft 282 kts 330°
2026-04-25 12:48 49.69653 -2.77213 10007 ft 292 kts 330°
2026-04-25 12:48 49.71440 -2.78727 10811 ft 297 kts 330°
2026-04-25 12:49 49.73293 -2.80293 11634 ft 310 kts 330°
2026-04-25 12:49 49.75218 -2.81939 12486 ft 322 kts 327°
2026-04-25 12:49 49.77090 -2.83938 13363 ft 333 kts 321°
2026-04-25 12:49 49.78983 -2.86121 14223 ft 346 kts 322°
2026-04-25 12:50 49.80995 -2.88183 14850 ft 345 kts 326°
2026-04-25 12:50 49.83005 -2.90137 15125 ft 334 kts 325°
2026-04-25 12:50 49.84945 -2.92130 15866 ft 339 kts 324°
2026-04-25 12:50 49.86938 -2.94218 16631 ft 351 kts 324°
2026-04-25 12:51 49.89006 -2.96344 17425 ft 361 kts 324°
2026-04-25 12:51 49.91101 -2.98487 18225 ft 360 kts 324°
2026-04-25 12:51 49.93192 -3.00644 18962 ft 366 kts 324°
2026-04-25 12:51 49.95330 -3.02856 19681 ft 369 kts 324°
2026-04-25 12:52 49.97439 -3.05033 20397 ft 369 kts 324°
2026-04-25 12:52 49.99627 -3.07298 21160 ft 376 kts 324°
2026-04-25 12:52 50.01811 -3.09558 21926 ft 377 kts 324°
2026-04-25 12:52 50.04002 -3.11831 22715 ft 381 kts 324°
2026-04-25 12:53 50.06222 -3.14136 23530 ft 387 kts 324°
2026-04-25 12:53 50.08427 -3.16426 24247 ft 389 kts 324°
2026-04-25 12:53 50.10718 -3.18754 24956 ft 392 kts 326°
2026-04-25 12:53 50.13045 -3.21038 25681 ft 396 kts 326°
2026-04-25 12:54 50.15396 -3.23332 26417 ft 400 kts 326°
2026-04-25 12:54 50.17768 -3.25636 27178 ft 403 kts 326°
2026-04-25 12:54 50.20154 -3.27946 27957 ft 405 kts 326°
2026-04-25 12:54 50.22555 -3.30262 28754 ft 406 kts 326°
2026-04-25 12:55 50.24964 -3.32578 29569 ft 407 kts 326°
2026-04-25 12:55 50.26561 -3.34108 30122 ft 406 kts 326°
2026-04-25 12:55 50.29783 -3.37184 31114 ft 405 kts 326°
2026-04-25 12:55 50.32184 -3.39466 31847 ft 402 kts 326°
2026-04-25 12:56 50.34567 -3.41721 32607 ft 399 kts 326°
2026-04-25 12:56 50.36912 -3.43931 33244 ft 399 kts 326°
2026-04-25 12:56 50.39299 -3.46176 33741 ft 401 kts 326°
2026-04-25 12:56 50.41697 -3.48426 34241 ft 403 kts 326°
2026-04-25 12:57 50.44109 -3.50684 34693 ft 404 kts 326°
2026-04-25 12:57 50.46520 -3.52942 35144 ft 405 kts 326°
2026-04-25 12:57 50.48941 -3.55210 35604 ft 405 kts 326°
2026-04-25 12:57 50.51361 -3.57477 36030 ft 407 kts 326°
2026-04-25 12:58 50.53795 -3.59762 36024 ft 420 kts 326°
2026-04-25 12:58 50.56424 -3.62098 35994 ft 435 kts 333°
2026-04-25 12:58 50.59398 -3.63323 36187 ft 450 kts 352°
2026-04-25 12:58 50.62558 -3.63116 36448 ft 462 kts
2026-04-25 12:59 50.65681 -3.61975 36748 ft 470 kts 13°
2026-04-25 12:59 50.68819 -3.60484 37253 ft 472 kts 14°
2026-04-25 12:59 50.71970 -3.59004 37809 ft 471 kts 12°
2026-04-25 12:59 50.75179 -3.57892 38018 ft 477 kts
2026-04-25 13:00 50.78496 -3.57072 38165 ft 485 kts
2026-04-25 13:00 50.80717 -3.56505 38216 ft 492 kts
2026-04-25 13:00 50.85267 -3.54932 38224 ft 508 kts 11°
2026-04-25 13:00 50.88750 -3.53685 38224 ft 519 kts
2026-04-25 13:01 50.92338 -3.52604 38221 ft 530 kts
2026-04-25 13:01 50.96001 -3.51517 38219 ft 541 kts
2026-04-25 13:01 50.99731 -3.50273 38219 ft 554 kts 10°
2026-04-25 13:01 51.03480 -3.48987 38216 ft 546 kts
2026-04-25 13:02 51.07152 -3.47810 38201 ft 529 kts
2026-04-25 13:02 51.10744 -3.46692 38203 ft 526 kts
2026-04-25 13:02 51.17924 -3.44327 38201 ft 528 kts
2026-04-25 13:03 51.25084 -3.42004 38207 ft 528 kts
2026-04-25 13:03 51.32251 -3.39646 38638 ft 521 kts
2026-04-25 13:04 51.35805 -3.38477 39111 ft 520 kts
2026-04-25 13:04 51.39345 -3.37323 39538 ft 520 kts
2026-04-25 13:04 51.42894 -3.36155 39977 ft 519 kts
2026-04-25 13:04 51.46439 -3.34981 40419 ft 519 kts
2026-04-25 13:05 51.49968 -3.33811 40864 ft 517 kts
2026-04-25 13:05 51.53488 -3.32650 41325 ft 515 kts
2026-04-25 13:05 51.56998 -3.31489 41791 ft 513 kts 10°
2026-04-25 13:05 51.60490 -3.30326 42270 ft 511 kts 10°
2026-04-25 13:06 51.63960 -3.29171 42761 ft 508 kts 10°
2026-04-25 13:06 51.67416 -3.28021 43222 ft 506 kts 10°
2026-04-25 13:06 51.74417 -3.25788 43219 ft 519 kts
2026-04-25 13:07 51.81642 -3.23837 43220 ft 533 kts
2026-04-25 13:07 51.89012 -3.21795 43222 ft 547 kts
2026-04-25 13:08 51.96629 -3.19712 43207 ft 562 kts
2026-04-25 13:08 52.04387 -3.17555 43207 ft 562 kts
2026-04-25 13:09 52.12108 -3.15426 43211 ft 563 kts
2026-04-25 13:09 52.19843 -3.13266 43204 ft 563 kts
2026-04-25 13:10 52.27497 -3.11134 43211 ft 562 kts
2026-04-25 13:10 52.35237 -3.08963 43207 ft 564 kts
2026-04-25 13:11 52.42972 -3.06790 43208 ft 564 kts
2026-04-25 13:11 52.50700 -3.04610 43215 ft 564 kts
2026-04-25 13:12 52.58444 -3.02417 43203 ft 564 kts
2026-04-25 13:12 52.64875 -3.00589 43193 ft 564 kts
2026-04-25 13:13 52.73909 -2.98013 43186 ft 564 kts
2026-04-25 13:13 52.81594 -2.95813 43194 ft 565 kts
2026-04-25 13:14 52.89355 -2.93584 43187 ft 565 kts
2026-04-25 13:14 52.97094 -2.91352 43191 ft 566 kts
2026-04-25 13:15 53.04862 -2.89104 43176 ft 569 kts
2026-04-25 13:15 53.08665 -2.87600 43190 ft 553 kts 16°
2026-04-25 13:15 53.12237 -2.85470 43190 ft 538 kts 19°
2026-04-25 13:16 53.19174 -2.81176 43182 ft 529 kts 18°
2026-04-25 13:16 53.26084 -2.76883 43204 ft 531 kts 19°
2026-04-25 13:17 53.32906 -2.72632 43211 ft 530 kts 18°
2026-04-25 13:17 53.39914 -2.68245 43209 ft 530 kts 19°
2026-04-25 13:18 53.46685 -2.63996 43209 ft 530 kts 19°
2026-04-25 13:18 53.53587 -2.59649 43204 ft 530 kts 19°
2026-04-25 13:19 53.60488 -2.55287 43209 ft 530 kts 19°
2026-04-25 13:19 53.65105 -2.52361 43212 ft 530 kts 19°
2026-04-25 13:20 53.74282 -2.46520 43217 ft 529 kts 19°
2026-04-25 13:20 53.81162 -2.42128 43211 ft 529 kts 19°
2026-04-25 13:21 53.88047 -2.37714 43206 ft 529 kts 19°
2026-04-25 13:21 53.95092 -2.34438 43213 ft 524 kts
2026-04-25 13:22 54.02347 -2.34526 43216 ft 522 kts 349°
2026-04-25 13:23 54.12426 -2.40822 43214 ft 518 kts 326°
2026-04-25 13:23 54.18513 -2.47511 43205 ft 519 kts 326°
2026-04-25 13:24 54.24584 -2.54222 43210 ft 518 kts 326°
2026-04-25 13:24 54.30645 -2.60942 43211 ft 519 kts 326°
2026-04-25 13:25 54.36672 -2.67647 43210 ft 520 kts 326°
2026-04-25 13:25 54.39713 -2.71046 42866 ft 526 kts 326°
2026-04-25 13:25 54.42785 -2.74477 42306 ft 523 kts 326°
2026-04-25 13:25 54.45787 -2.77831 41727 ft 509 kts 325°
2026-04-25 13:26 54.48745 -2.81149 41132 ft 507 kts 325°
2026-04-25 13:26 54.51687 -2.84463 40533 ft 505 kts 325°
2026-04-25 13:26 54.54629 -2.87773 39932 ft 503 kts 325°
2026-04-25 13:26 54.57552 -2.91064 39352 ft 500 kts 325°
2026-04-25 13:27 54.60454 -2.94344 38759 ft 498 kts 325°
2026-04-25 13:27 54.63347 -2.97618 38069 ft 495 kts 325°
2026-04-25 13:27 54.66217 -3.00876 37398 ft 492 kts 324°
2026-04-25 13:27 54.68938 -3.04421 36744 ft 488 kts 318°
2026-04-25 13:28 54.71448 -3.08347 36129 ft 485 kts 315°
2026-04-25 13:28 54.72270 -3.09708 35919 ft 484 kts 314°
2026-04-25 13:28 54.75497 -3.14996 35101 ft 481 kts 317°
2026-04-25 13:28 54.78074 -3.18673 34500 ft 479 kts 320°
2026-04-25 13:29 54.80666 -3.22289 33818 ft 478 kts 319°
2026-04-25 13:29 54.83964 -3.27341 32837 ft 476 kts 316°
2026-04-25 13:29 54.86448 -3.31164 32105 ft 476 kts 318°
2026-04-25 13:30 54.90686 -3.37370 30937 ft 475 kts 319°
2026-04-25 13:30 54.93181 -3.41127 30270 ft 474 kts 317°
2026-04-25 13:30 54.95654 -3.44908 29478 ft 473 kts 318°
2026-04-25 13:31 55.00621 -3.52356 27966 ft 470 kts 318°
2026-04-25 13:31 55.03084 -3.56082 27245 ft 468 kts 317°
2026-04-25 13:31 55.05534 -3.59814 26538 ft 467 kts 317°
2026-04-25 13:31 55.07982 -3.63522 25846 ft 465 kts 318°
2026-04-25 13:32 55.10418 -3.67215 25170 ft 463 kts 317°
2026-04-25 13:32 55.12843 -3.70907 24511 ft 461 kts 317°
2026-04-25 13:32 55.15251 -3.74581 23860 ft 458 kts 317°
2026-04-25 13:32 55.17631 -3.78212 23069 ft 443 kts 317°
2026-04-25 13:33 55.19890 -3.81660 22274 ft 426 kts 317°
2026-04-25 13:33 55.22116 -3.85079 21532 ft 426 kts 317°
2026-04-25 13:33 55.24350 -3.88512 20808 ft 427 kts 317°
2026-04-25 13:33 55.25836 -3.90788 20335 ft 427 kts 317°
2026-04-25 13:34 55.28789 -3.95328 19408 ft 426 kts 317°
2026-04-25 13:34 55.31010 -3.98761 18731 ft 425 kts 317°
2026-04-25 13:34 55.33231 -4.02184 17995 ft 424 kts 317°
2026-04-25 13:34 55.35430 -4.05645 17230 ft 423 kts 315°
2026-04-25 13:35 55.37551 -4.09199 16492 ft 417 kts 314°
2026-04-25 13:35 55.39552 -4.12622 15682 ft 386 kts 314°
2026-04-25 13:35 55.41410 -4.15829 14872 ft 363 kts 314°
2026-04-25 13:35 55.43166 -4.18868 14075 ft 345 kts 314°
2026-04-25 13:36 55.44840 -4.21771 13206 ft 330 kts 314°
2026-04-25 13:36 55.46442 -4.24557 12365 ft 319 kts 314°
2026-04-25 13:36 55.48001 -4.27260 11548 ft 309 kts 314°
2026-04-25 13:36 55.49511 -4.29882 10748 ft 300 kts 314°
2026-04-25 13:37 55.50981 -4.32437 9958 ft 292 kts 314°
2026-04-25 13:37 55.52414 -4.34928 9115 ft 286 kts 314°
2026-04-25 13:37 55.53808 -4.37352 8298 ft 281 kts 314°
2026-04-25 13:37 55.55193 -4.39757 7580 ft 275 kts 314°
2026-04-25 13:38 55.56534 -4.42091 6905 ft 266 kts 314°
2026-04-25 13:38 55.57834 -4.44362 6230 ft 260 kts 314°
2026-04-25 13:38 55.59112 -4.46585 5528 ft 255 kts 314°
2026-04-25 13:38 55.60376 -4.48764 4855 ft 252 kts 314°
2026-04-25 13:39 55.61606 -4.50905 4329 ft 243 kts 314°
2026-04-25 13:39 55.62747 -4.52941 4129 ft 221 kts 313°
2026-04-25 13:39 55.63825 -4.54801 3772 ft 213 kts 314°
2026-04-25 13:39 55.64891 -4.56646 3275 ft 216 kts 314°
2026-04-25 13:40 55.65920 -4.58438 3188 ft 195 kts 314°
2026-04-25 13:40 55.66835 -4.60070 3078 ft 180 kts 314°
2026-04-25 13:40 55.67698 -4.61594 2931 ft 166 kts 314°
2026-04-25 13:40 55.68513 -4.63052 3007 ft 172 kts 314°
2026-04-25 13:41 55.69322 -4.64516 2998 ft 164 kts 313°
2026-04-25 13:41 55.70211 -4.65766 2877 ft 166 kts 339°
2026-04-25 13:41 55.71323 -4.65811 2857 ft 158 kts 20°
2026-04-25 13:41 55.72361 -4.65076 2989 ft 165 kts 18°
2026-04-25 13:42 55.73458 -4.64446 2865 ft 166 kts 18°
2026-04-25 13:42 55.74558 -4.63791 2714 ft 167 kts 18°
2026-04-25 13:42 55.75655 -4.63132 2603 ft 163 kts 19°
2026-04-25 13:42 55.76679 -4.62351 2574 ft 158 kts 30°
2026-04-25 13:43 55.77544 -4.61160 2617 ft 161 kts 46°
2026-04-25 13:43 55.78345 -4.59745 2420 ft 166 kts 45°
2026-04-25 13:43 55.79163 -4.58309 2157 ft 162 kts 45°
2026-04-25 13:43 55.79902 -4.56903 1982 ft 150 kts 49°
2026-04-25 13:44 55.80605 -4.55613 1744 ft 138 kts 45°
2026-04-25 13:44 55.81220 -4.54463 1513 ft 123 kts 50°
2026-04-25 13:44 55.81810 -4.53405 1380 ft 121 kts 45°
2026-04-25 13:44 55.82412 -4.52356 1248 ft 120 kts 47°
2026-04-25 13:45 55.83002 -4.51291 1096 ft 122 kts 47°
2026-04-25 13:45 55.83585 -4.50172 870 ft 124 kts 48°
2026-04-25 13:45 55.84164 -4.49055 647 ft 121 kts 50°
2026-04-25 13:45 55.84743 -4.47977 443 ft 120 kts 49°
2026-04-25 13:46 55.85300 -4.46920 305 ft 115 kts 50°
2026-04-25 13:46 55.85836 -4.45885 157 ft 115 kts 50°
2026-04-25 13:46 55.86386 -4.44844 39 ft 113 kts 48°
2026-04-25 13:46 55.86877 -4.43924 23 ft 90 kts 47°
2026-04-25 13:47 55.87273 -4.43182 23 ft 75 kts 48°
2026-04-25 13:47 55.87570 -4.42632 23 ft 51 kts 46°
2026-04-25 13:47 55.87735 -4.42319 23 ft 17 kts 49°
2026-04-25 13:47 55.87710 -4.42164 23 ft 14 kts 152°
2026-04-25 13:48 55.87609 -4.42185 23 ft 18 kts 214°
2026-04-25 13:48 55.87524 -4.42338 23 ft 17 kts 225°
2026-04-25 13:48 55.87447 -4.42482 23 ft 16 kts 226°
2026-04-25 13:48 55.87369 -4.42604 23 ft 14 kts 210°
2026-04-25 13:49 55.87280 -4.42666 25 ft 13 kts 199°
2026-04-25 13:49 55.87231 -4.42657 23 ft 5 kts 120°
2026-04-25 13:49 55.87224 -4.42576 23 ft 8 kts 79°
2026-04-25 13:49 55.87213 -4.42564 23 ft 0 kts 254°